Location: Celina Division
(33.3022°N, 96.7580°W)
Time: 14:27:45
(UTC+00:00)

CZ-2C R/B - Pass Details

Date: 08 December 2021
Orbit: 784 x 870 km, 98.2° (Epoch: 28 January)

Event Time Altitude Azimuth Distance (km) Brightness Sun altitude
Rises 12:31:19 0° 191° (SSW) 3,409 6.0 -9.9°
Reaches altitude 10° 12:33:58 10° 202° (SSW) 2,465 5.1 -9.3°
Maximum altitude 12:38:45 31° 263° (W) 1,437 3.5 -8.4°
Drops below altitude 10° 12:43:28 10° 324° (NW) 2,429 4.6 -7.5°
Sets 12:46:05 0° 335° (NNW) 3,351 5.4 -7.0°
